Погода в Атбасаре

Хотите узнать прогноз погоды в Атбасаре? Тогда Вам сюда: Погода в Атбасаре

Поиск расширенной информации на нашем сайте:

Полезная информация:

Новости сайта



02.01.2020
Опубликован Долгосрочный прогноз погоды по городам России и ближнего зарубежья на январь 2020 года.
Карты: Прогноз на январь и февраль 2020 года, Сравнение прогнозируемой аномалии приземной температуры воздуха на январь 2020 года по разным моделям.




Погода в Атбасаре - сегодня

Время (UTC), дата Ветер
(°,м/с) 
Видим.   Явления Облачность Т
(°С)
Тd
(°С)
f(%) Тe
(°С)
Pmin
(гПа)
dP
(гПа)
Po
(мм)
O2
(г/м3)
Тmin Tmax R s Состояние
почвы
12 22.10.21 250 (З) 10-16{17}  4000 м  слаб. морось{ливн. осадки}  10/10 300 м 
[Sc]
+1.3 +0.2 92 -3  1016.5  0.9  734  294           
15 22.10.21 240 (ЮЗ) 9{16}  н/о  {морось}  10/10 1000 м кучево-дожд. 
[Cb cap]
+2.2 +1.2 93 -2  1017.8  1.4  735  294    +2.2       
18 22.10.21 250 (З) н/о  {морось}  10/10 1000 м кучево-дожд. 
[Cb cap]
+3.3 +2.3 93 -1  1017.7  735  292    +2.2     
21 22.10.21 240 (ЮЗ) 10  н/о    10/10 1000 м кучево-дожд. 
[Cb cap]
+4.6 +3.2 91 +1  1017.3  -0.2  735  291           
00 23.10.21 230 (ЮЗ) 9{15}  н/о    10/10 1000 м 
[Sc]
+3.9 +1.9 87 1016.8  -0.6  735  292           
03 23.10.21 240 (ЮЗ) 12-18{18}  20000 м    9/5 1000 м верхняя 
[Sc|Ci sp]
+3.5 +0.9 83 -1  1016.6  -0.2  735  292           
06 23.10.21 250 (З) 11-16{18}  20000 м    4/3 1000 м средняя 
[Cu med, cong|Ac trans]
+7.3 +2.8 73 +4  1017.5  1.4  736  288  +2.2         
09 23.10.21 250 (З) 11-16{16}  20000 м    3/0 средняя, верхняя 
[Ac trans|Ci fib]
+11.7 +4 59 +9  1017.5  0.5  736  284           
12 23.10.21 260 (З) 20000 м    8/6 1000 м верхняя 
[Sc|Ci fib]
+11.5 +3.7 59 +10  1017.8  0.3  736  284           
15 23.10.21 250 (З) н/о    9/9 1000 м 
[Sc]
+10.7 +4.3 65 +9  1020  738  285    +13.6       
18 23.10.21 240 (ЮЗ) н/о    10/10 1000 м 
[Sc]
+11.3 +6.5 72 +10  1020.6  0.7  738  285    +13.6       
21 23.10.21 250 (З) н/о    8/0 средняя 
[Sc|Ac cast]
+9.1 +7 87 +7  1022.1  1.2  739  287           
00 24.10.21 250 (З) н/о    10/10 1000 м кучево-дожд. 
[Cb cap]
+7.7 +6.2 90 +5  1022.4  0.1  739  289           
03 24.10.21 260 (З) 20000 м    10/9 1000 м 
[Sc]
+7.1 +4.6 84 +4  1022.9  0.3  739  290           
06 24.10.21 240 (ЮЗ) 20000 м    9/8 1000 м верхняя 
[Sc|Ci fib]
+9.9 +3.3 63 +8  1023  0.5  740  287  +6.9         
09 24.10.21 230 (ЮЗ) 10{14}  20000 м    8/0 средняя, верхняя 
[Ac As|Ci fib]
+14.5 +0.9 40 +13  1021.9  -0.5  739  283           
12 24.10.21 240 (ЮЗ) 6{13}  20000 м    5/0 средняя, верхняя 
[Ac trans|Ci fib]
+12 -5.1 30 +11  1021.4  -0.8  739  286           
15 24.10.21 230 (ЮЗ) 7{10}  н/о    3/0 средняя 
[Ac trans]
+7.3 -5.5 40 +5  1021.4  -0.6  738  290    +14.5       
18 24.10.21 240 (ЮЗ) 5{12}  н/о    1/0 верхняя 
[Ci fib]
+2.5 -4.4 60 1021  -1  738  295    +14.5       
21 24.10.21 210 (ЮЗ) 4{10}  н/о    3/0 верхняя 
[Ci fib]
+1.9 -3.8 66 1019.9  -1.2  737  295           
00 25.10.21 230 (ЮЗ) н/о    3/0 верхняя 
[Ci fib]
+1.2 -4.7 65 -2  1019.4  -0.6  736  296           
03 25.10.21 220 (ЮЗ) 20000 м    8/0 средняя, верхняя 
[Ac trans|Ci fib]
+1.6 -3.1 71 -1  1019.1  -0.2  736  295           
06 25.10.21 230 (ЮЗ) 20000 м    3/0 верхняя 
[Ci sp]
+9.1 -2.9 43 +7  1017.8  -0.3  736  287  +1.2         
09 25.10.21 240 (ЮЗ) 20000 м    8/0 средняя 
[Ac trans]
+12.8 -5.2 28 +12  1016  -1.2  735  283           
12 25.10.21 200 (Ю) 20000 м    9/3 1000 м средняя 
[Sc|Ac trans]
+12.4 -2.6 35 +12  1014.5  -1.5  734  283           
Время (UTC), дата Ветер
(°,м/с) 
Видим.   Явления Облачность Т
(°С)
Тd
(°С)
f(%) Тe
(°С)
Pmin
(гПа)
dP
(гПа)
Po
(мм)
O2
(г/м3)
Тmin Tmax R s Состояние
почвы

Для получения пояснительной информации подведите курсор к названию столбца.

ПОГОДА в Атбасаре - архив

Всё, что Вы хотите узнать о погоде в Атбасаре - удобно и подробно!

Выберите нужную дату (начиная с 1 января 2019* года) и нажмите кнопку "Найти".
Будут отображены архивные сводки погоды по пункту Атбасар, начиная с указанной даты.


Отображать данные в формате CSV (для использования в таблицах Excel)


Внимание! Наш архив погоды предназначен исключительно для личного некоммерческого использования в познавательных целях. Если Вам необходимы официальные справки о состоянии погоды (для производственных, юридических, коммерческих и т.п. целей), обращайтесь в органы Росгидромета.

*Примечание: данная дата относится к архиву по метеостанциям СССР (Россия, СНГ, Балтия).
Архив по метеостанциям Зарубежной Европы и Азии (кроме Китая) хранится 10 дней, по другим регионам земного шара (Китай, Африка, Америка, Австралия, Океания) - 1 день.

Атбасар - район местоположения метеостанции


Название, широта, долгота, высота метеостанции:
Атбасар 51.8°ш. 68.4°д. 304 м над ур. моря [Казахстан]

Дополнительная информация

В oтличие oт бoльшинства пoгoдных сайтoв мы публикуем пoдрoбную метеoинфoрмацию в детальнoм прoфессиoнальнoм фoрмате.

Характеристики температуры и влажнoсти вoздуха измеряются на высoте 2 м в тени вдали oт зданий и деревьев.
Скoрoсть ветра измеряется на высoте 10 м (на урoвне рoста челoвека скoрoсть ветра ниже в 1.5-2 раза). Если метеoстанция нахoдится в гoрoде или в лесу, тo скoрoсть ветра занижена на 2-4 м/с пo сравнению с oткрытым местoм. Скoрoсть ветра над акватoриями крупных рек и oзёр, а также на вершинах хoлмoв на 2-5 м/с выше, чем в oбычных услoвиях.
Атмoсфернoе давление в разных тoчках местнoсти мoжет значительнo oтличаться oт давления на метеoстанции, в зависимoсти oт услoвий рельефа (при пoдъёме на 10 м давление пoнижается примернo на 1 мм рт.ст.).